Simultaneous Nadir Overpasses (SNOs) Predictions

Prediction of SNOs between FY3D and NOAA-19 Satellite Orbit:

Table of predicted SNOs for the next 14.0 days since TLE Epoch: 12/21/2024
Index Date (FY3D) Time (FY3D) Lat,Lon (FY3D) SZA (FY3D ) Date (NOAA-19) Time (NOAA-19) Lat,Lon (NOAA-19) SZA (NOAA-19 ) Distance(km) Time Diff (sec)
1 12/24/2024 20:32:49 75.90,-124.69 99.24 12/24/2024 20:31:36 75.86,-125.46 99.19 21.29 73
2 12/24/2024 21:23:35 -76.00, 42.26 80.67 12/24/2024 21:22:31 -76.00, 42.29 80.67 0.57 64
3 12/24/2024 22:14:21 75.99,-150.39 99.32 12/24/2024 22:13:30 76.00,-150.46 99.33 2.43 51
4 12/24/2024 23:05:05 -76.00, 16.89 80.67 12/24/2024 23:04:28 -76.00, 16.81 80.67 2.14 37
5 12/24/2024 23:55:52 76.04,-175.92 99.36 12/24/2024 23:55:27 76.00,-175.94 99.33 3.83 25
6 12/25/2024 00:46:36 -76.05, -8.65 80.63 12/25/2024 00:46:24 -76.05, -8.51 80.63 3.77 12
7 12/25/2024 01:37:22 76.04, 158.70 99.36 12/25/2024 01:37:23 76.05, 158.74 99.38 1.62 1
8 12/25/2024 02:28:06 -76.05, -34.02 80.63 12/25/2024 02:28:21 -76.05, -33.98 80.62 1.18 15
9 12/25/2024 03:18:52 76.04, 133.32 99.36 12/25/2024 03:19:20 76.05, 133.26 99.38 2.24 28
10 12/25/2024 04:09:36 -76.05, -59.40 80.63 12/25/2024 04:10:18 -76.06, -59.46 80.62 1.76 42
11 12/25/2024 05:00:23 76.08, 107.79 99.41 12/25/2024 05:01:17 76.05, 107.78 99.38 3.60 54
12 12/25/2024 05:51:07 -76.10, -84.94 80.59 12/25/2024 05:52:15 -76.06, -84.94 80.62 4.14 68
13 12/25/2024 06:41:59 76.35, 81.42 99.67 12/25/2024 06:43:08 76.32, 83.29 99.66 49.23 69



Historial Predications of SNOs between FY3D and NOAA-19
